Location: Morisset
(33.1080°S, 151.4871°E)
Time: 13:07:12
(UTC+00:00)

Cosmos 407 Rocket - Pass Details

Date: 29 October 2020
Orbit: 743 x 787 km, 74.1° (Epoch: 23 November)

Event Time Altitude Azimuth Distance (km) Brightness Sun altitude
Rises 17:05:47 0° 192° (SSW) 3,247 7.0 -21.8°
Reaches altitude 10° 17:08:15 10° 186° (S) 2,308 6.3 -21.3°
Maximum altitude 17:13:21 53° 110° (ESE) 929 4.2 -20.4°
Drops below altitude 10° 17:18:21 10° 32° (NNE) 2,260 5.9 -19.6°
Sets 17:20:44 0° 27° (NNE) 3,173 6.7 -19.1°
